Time,TemperatureF,DewpointF,PressureIn,WindDirection,WindDirectionDegrees,WindSpeedMPH,WindSpeedGustMPH,Humidity,HourlyPrecipIn,Conditions,Clouds,dailyrainin,SoftwareType,DateUTC
2013-05-14 00:10:00,50.2,48.0,29.98,NE,43,1.0,2.0,93,0.00,,,0.00,weatherlink.com 1.10,2013-05-14 07:10:00,
2013-05-14 00:25:00,49.6,48.0,29.98,NW,319,0.0,1.0,94,0.00,,,0.00,weatherlink.com 1.10,2013-05-14 07:25:00,
2013-05-14 00:40:00,49.9,49.0,29.98,West,269,3.0,6.0,95,0.00,,,0.00,weatherlink.com 1.10,2013-05-14 07:40:00,
2013-05-14 00:55:00,52.1,51.0,29.98,WNW,295,6.0,11.0,94,0.00,,,0.00,weatherlink.com 1.10,2013-05-14 07:55:00,
2013-05-14 01:10:00,52.3,51.0,29.97,WNW,285,9.0,13.0,94,0.00,,,0.00,weatherlink.com 1.10,2013-05-14 08:10:00,
2013-05-14 01:25:00,52.4,51.0,29.98,West,274,4.0,9.0,94,0.00,,,0.00,weatherlink.com 1.10,2013-05-14 08:25:00,
2013-05-14 01:40:00,52.3,50.0,29.98,WNW,290,6.0,10.0,93,0.00,,,0.00,weatherlink.com 1.10,2013-05-14 08:40:00,
2013-05-14 01:55:00,52.2,51.0,29.97,NW,316,6.0,8.0,94,0.00,,,0.00,weatherlink.com 1.10,2013-05-14 08:55:00,
2013-05-14 02:10:00,52.2,51.0,29.97,WNW,298,9.0,11.0,94,0.00,,,0.00,weatherlink.com 1.10,2013-05-14 09:10:00,
2013-05-14 02:25:00,52.4,51.0,29.97,WNW,285,8.0,10.0,94,0.00,,,0.00,weatherlink.com 1.10,2013-05-14 09:25:00,
2013-05-14 02:40:00,52.4,51.0,29.97,West,280,1.0,12.0,94,0.00,,,0.00,weatherlink.com 1.10,2013-05-14 09:40:00,
2013-05-14 02:55:00,52.2,51.0,29.96,WNW,293,10.0,13.0,94,0.00,,,0.00,weatherlink.com 1.10,2013-05-14 09:55:00,
2013-05-14 03:10:00,52.2,51.0,29.96,West,280,7.0,11.0,94,0.00,,,0.00,weatherlink.com 1.10,2013-05-14 10:10:00,
2013-05-14 03:25:00,52.3,51.0,29.96,West,276,8.0,8.0,94,0.00,,,0.00,weatherlink.com 1.10,2013-05-14 10:25:00,
2013-05-14 03:40:00,52.2,51.0,29.96,WNW,286,3.0,14.0,94,0.00,,,0.00,weatherlink.com 1.10,2013-05-14 10:40:00,
2013-05-14 03:55:00,52.1,51.0,29.96,WNW,303,8.0,12.0,94,0.00,,,0.00,weatherlink.com 1.10,2013-05-14 10:55:00,
2013-05-14 04:10:00,51.9,50.0,29.96,WNW,282,8.0,9.0,94,0.00,,,0.00,weatherlink.com 1.10,2013-05-14 11:10:00,
2013-05-14 04:25:00,51.9,50.0,29.96,West,264,3.0,10.0,94,0.00,,,0.00,weatherlink.com 1.10,2013-05-14 11:25:00,
2013-05-14 04:40:00,51.8,50.0,29.96,WNW,285,6.0,11.0,94,0.00,,,0.00,weatherlink.com 1.10,2013-05-14 11:40:00,
2013-05-14 04:55:00,51.8,50.0,29.96,West,273,7.0,10.0,94,0.00,,,0.00,weatherlink.com 1.10,2013-05-14 11:55:00,
2013-05-14 05:10:00,51.7,50.0,29.96,West,278,7.0,9.0,94,0.00,,,0.00,weatherlink.com 1.10,2013-05-14 12:10:00,
2013-05-14 05:25:00,51.6,50.0,29.96,West,278,7.0,10.0,93,0.00,,,0.00,weatherlink.com 1.10,2013-05-14 12:25:00,
2013-05-14 05:40:00,51.6,50.0,29.96,WNW,290,3.0,10.0,94,0.00,,,0.00,weatherlink.com 1.10,2013-05-14 12:40:00,
2013-05-14 05:55:00,51.3,50.0,29.96,West,281,3.0,7.0,94,0.00,,,0.00,weatherlink.com 1.10,2013-05-14 12:55:00,
2013-05-14 06:11:00,51.5,50.0,29.96,WNW,301,4.0,9.0,93,0.00,,,0.00,weatherlink.com 1.10,2013-05-14 13:11:00,
2013-05-14 06:26:00,51.2,49.0,29.97,WNW,295,2.0,9.0,93,0.00,,,0.00,weatherlink.com 1.10,2013-05-14 13:26:00,
2013-05-14 06:41:00,50.8,49.0,29.97,WNW,284,2.0,5.0,94,0.00,,,0.00,weatherlink.com 1.10,2013-05-14 13:41:00,
2013-05-14 06:56:00,52.1,51.0,29.97,NW,322,0.0,9.0,94,0.00,,,0.00,weatherlink.com 1.10,2013-05-14 13:56:00,
2013-05-14 07:11:00,52.8,51.0,29.97,WNW,301,4.0,9.0,92,0.00,,,0.00,weatherlink.com 1.10,2013-05-14 14:11:00,
2013-05-14 07:26:00,53.3,51.0,29.97,WNW,282,2.0,9.0,90,0.00,,,0.00,weatherlink.com 1.10,2013-05-14 14:26:00,
2013-05-14 07:41:00,53.7,51.0,29.97,NW,305,8.0,11.0,90,0.00,,,0.00,weatherlink.com 1.10,2013-05-14 14:41:00,
2013-05-14 07:56:00,54.5,52.0,29.97,WNW,290,1.0,9.0,90,0.00,,,0.00,weatherlink.com 1.10,2013-05-14 14:56:00,
2013-05-14 08:11:00,55.0,52.0,29.98,WNW,299,1.0,10.0,89,0.00,,,0.00,weatherlink.com 1.10,2013-05-14 15:11:00,
2013-05-14 08:26:00,55.6,52.0,29.98,WNW,282,3.0,11.0,86,0.00,,,0.00,weatherlink.com 1.10,2013-05-14 15:26:00,
2013-05-14 08:41:00,55.5,51.0,29.98,WNW,299,7.0,14.0,86,0.00,,,0.00,weatherlink.com 1.10,2013-05-14 15:41:00,
2013-05-14 08:56:00,55.9,52.0,29.98,WNW,284,6.0,14.0,85,0.00,,,0.00,weatherlink.com 1.10,2013-05-14 15:56:00,
2013-05-14 09:11:00,56.5,52.0,29.99,West,276,12.0,13.0,85,0.00,,,0.00,weatherlink.com 1.10,2013-05-14 16:11:00,
2013-05-14 09:26:00,56.1,51.0,29.99,WNW,288,9.0,16.0,84,0.00,,,0.00,weatherlink.com 1.10,2013-05-14 16:26:00,
2013-05-14 09:41:00,56.6,52.0,29.98,WNW,297,10.0,15.0,84,0.00,,,0.00,weatherlink.com 1.10,2013-05-14 16:41:00,
2013-05-14 09:56:00,56.8,52.0,29.99,WNW,291,5.0,13.0,83,0.00,,,0.00,weatherlink.com 1.10,2013-05-14 16:56:00,
2013-05-14 10:11:00,57.0,52.0,29.98,WSW,252,9.0,17.0,84,0.00,,,0.00,weatherlink.com 1.10,2013-05-14 17:11:00,
2013-05-14 10:26:00,57.4,53.0,29.99,West,277,10.0,18.0,85,0.00,,,0.00,weatherlink.com 1.10,2013-05-14 17:26:00,
2013-05-14 10:41:00,57.3,53.0,29.99,WNW,287,9.0,19.0,84,0.00,,,0.00,weatherlink.com 1.10,2013-05-14 17:41:00,
2013-05-14 10:56:00,58.2,53.0,30.00,WNW,291,8.0,16.0,84,0.00,,,0.00,weatherlink.com 1.10,2013-05-14 17:56:00,
2013-05-14 11:11:00,58.0,52.0,30.00,West,271,12.0,21.0,81,0.00,,,0.00,weatherlink.com 1.10,2013-05-14 18:11:00,
2013-05-14 11:27:00,58.3,53.0,30.00,West,276,10.0,19.0,82,0.00,,,0.00,weatherlink.com 1.10,2013-05-14 18:27:00,
2013-05-14 11:41:00,58.4,53.0,30.00,WNW,285,9.0,18.0,83,0.00,,,0.00,weatherlink.com 1.10,2013-05-14 18:41:00,
2013-05-14 11:56:00,58.1,53.0,30.00,WNW,285,10.0,23.0,82,0.00,,,0.00,weatherlink.com 1.10,2013-05-14 18:56:00,
2013-05-14 12:11:00,58.0,53.0,30.00,WNW,284,12.0,21.0,82,0.00,,,0.00,weatherlink.com 1.10,2013-05-14 19:11:00,
2013-05-14 12:26:00,58.5,53.0,30.00,West,266,14.0,21.0,81,0.00,,,0.00,weatherlink.com 1.10,2013-05-14 19:26:00,
2013-05-14 12:41:00,58.9,53.0,29.99,WNW,293,14.0,20.0,81,0.00,,,0.00,weatherlink.com 1.10,2013-05-14 19:41:00,
2013-05-14 12:56:00,58.9,53.0,29.99,WNW,285,10.0,19.0,80,0.00,,,0.00,weatherlink.com 1.10,2013-05-14 19:56:00,
2013-05-14 13:11:00,58.3,53.0,29.99,West,273,12.0,22.0,81,0.00,,,0.00,weatherlink.com 1.10,2013-05-14 20:11:00,
2013-05-14 13:26:00,58.6,53.0,29.99,WNW,301,15.0,19.0,81,0.00,,,0.00,weatherlink.com 1.10,2013-05-14 20:26:00,
2013-05-14 13:41:00,58.5,53.0,29.99,West,270,14.0,21.0,83,0.00,,,0.00,weatherlink.com 1.10,2013-05-14 20:41:00,
2013-05-14 13:56:00,58.9,52.0,29.99,West,280,12.0,22.0,78,0.00,,,0.00,weatherlink.com 1.10,2013-05-14 20:56:00,
2013-05-14 14:11:00,59.0,52.0,29.99,West,280,14.0,22.0,78,0.00,,,0.00,weatherlink.com 1.10,2013-05-14 21:11:00,
2013-05-14 14:26:00,59.5,53.0,29.99,West,278,9.0,19.0,79,0.00,,,0.00,weatherlink.com 1.10,2013-05-14 21:26:00,
2013-05-14 14:41:00,59.7,52.0,29.98,West,274,10.0,20.0,77,0.00,,,0.00,weatherlink.com 1.10,2013-05-14 21:41:00,
2013-05-14 14:56:00,59.9,53.0,29.98,WNW,284,16.0,18.0,77,0.00,,,0.00,weatherlink.com 1.10,2013-05-14 21:56:00,
2013-05-14 15:11:00,59.8,53.0,29.97,WNW,285,11.0,19.0,77,0.00,,,0.00,weatherlink.com 1.10,2013-05-14 22:11:00,
2013-05-14 15:26:00,59.8,53.0,29.97,WNW,290,9.0,18.0,77,0.00,,,0.00,weatherlink.com 1.10,2013-05-14 22:26:00,
2013-05-14 15:41:00,59.2,52.0,29.97,West,266,12.0,22.0,76,0.00,,,0.00,weatherlink.com 1.10,2013-05-14 22:41:00,
2013-05-14 15:57:00,59.2,52.0,29.96,NW,322,11.0,20.0,78,0.00,,,0.00,weatherlink.com 1.10,2013-05-14 22:57:00,
2013-05-14 16:12:00,59.3,52.0,29.96,WNW,302,12.0,21.0,76,0.00,,,0.00,weatherlink.com 1.10,2013-05-14 23:12:00,
2013-05-14 16:27:00,59.3,52.0,29.96,WNW,301,13.0,19.0,78,0.00,,,0.00,weatherlink.com 1.10,2013-05-14 23:27:00,
2013-05-14 16:42:00,58.9,52.0,29.96,West,273,13.0,21.0,78,0.00,,,0.00,weatherlink.com 1.10,2013-05-14 23:42:00,
2013-05-14 16:57:00,58.0,52.0,29.96,West,271,11.0,23.0,79,0.00,,,0.00,weatherlink.com 1.10,2013-05-14 23:57:00,
2013-05-14 17:12:00,57.4,52.0,29.96,West,280,11.0,25.0,81,0.00,,,0.00,weatherlink.com 1.10,2013-05-15 00:12:00,
2013-05-14 17:27:00,57.0,51.0,29.97,West,276,15.0,22.0,81,0.00,,,0.00,weatherlink.com 1.10,2013-05-15 00:27:00,
2013-05-14 17:42:00,56.6,51.0,29.97,West,259,15.0,27.0,80,0.00,,,0.00,weatherlink.com 1.10,2013-05-15 00:42:00,
2013-05-14 17:57:00,56.5,50.0,29.96,WNW,291,17.0,27.0,80,0.00,,,0.00,weatherlink.com 1.10,2013-05-15 00:57:00,
2013-05-14 18:12:00,56.4,50.0,29.97,West,273,14.0,24.0,80,0.00,,,0.00,weatherlink.com 1.10,2013-05-15 01:12:00,
2013-05-14 18:27:00,56.1,50.0,29.97,WNW,295,11.0,24.0,79,0.00,,,0.00,weatherlink.com 1.10,2013-05-15 01:27:00,
2013-05-14 18:42:00,55.6,50.0,29.96,West,276,11.0,24.0,81,0.00,,,0.00,weatherlink.com 1.10,2013-05-15 01:42:00,
2013-05-14 18:57:00,55.3,50.0,29.96,WNW,282,11.0,28.0,81,0.00,,,0.00,weatherlink.com 1.10,2013-05-15 01:57:00,
2013-05-14 19:12:00,54.8,50.0,29.96,West,264,8.0,23.0,83,0.00,,,0.00,weatherlink.com 1.10,2013-05-15 02:12:00,
2013-05-14 19:27:00,54.7,50.0,29.97,WNW,295,9.0,16.0,83,0.00,,,0.00,weatherlink.com 1.10,2013-05-15 02:27:00,
2013-05-14 19:42:00,54.3,49.0,29.97,WNW,283,10.0,17.0,83,0.00,,,0.00,weatherlink.com 1.10,2013-05-15 02:42:00,
2013-05-14 19:57:00,53.5,49.0,29.97,NW,305,17.0,20.0,85,0.00,,,0.00,weatherlink.com 1.10,2013-05-15 02:57:00,
2013-05-14 20:12:00,53.1,49.0,29.98,WNW,291,11.0,15.0,85,0.00,,,0.00,weatherlink.com 1.10,2013-05-15 03:12:00,
2013-05-14 20:27:00,52.9,49.0,29.98,West,271,9.0,16.0,87,0.00,,,0.00,weatherlink.com 1.10,2013-05-15 03:27:00,
2013-05-14 20:42:00,52.8,49.0,29.98,WNW,283,12.0,16.0,87,0.00,,,0.00,weatherlink.com 1.10,2013-05-15 03:42:00,
2013-05-14 20:57:00,52.5,49.0,29.98,WNW,295,13.0,18.0,87,0.00,,,0.00,weatherlink.com 1.10,2013-05-15 03:57:00,
2013-05-14 21:12:00,52.5,49.0,29.99,West,272,11.0,17.0,87,0.00,,,0.00,weatherlink.com 1.10,2013-05-15 04:12:00,
2013-05-14 21:27:00,52.3,49.0,30.00,West,278,11.0,18.0,87,0.00,,,0.00,weatherlink.com 1.10,2013-05-15 04:27:00,
2013-05-14 21:42:00,52.2,49.0,30.00,WNW,302,7.0,15.0,87,0.00,,,0.00,weatherlink.com 1.10,2013-05-15 04:42:00,
2013-05-14 21:57:00,52.1,48.0,30.01,West,278,6.0,15.0,87,0.00,,,0.00,weatherlink.com 1.10,2013-05-15 04:57:00,
2013-05-14 22:12:00,51.9,48.0,30.02,NW,324,5.0,12.0,87,0.00,,,0.00,weatherlink.com 1.10,2013-05-15 05:12:00,
2013-05-14 22:27:00,52.0,49.0,30.02,WNW,303,7.0,12.0,88,0.00,,,0.00,weatherlink.com 1.10,2013-05-15 05:27:00,
2013-05-14 22:42:00,51.8,48.0,30.02,WNW,290,9.0,15.0,88,0.00,,,0.00,weatherlink.com 1.10,2013-05-15 05:42:00,
2013-05-14 22:57:00,51.6,49.0,30.02,West,280,8.0,16.0,89,0.00,,,0.00,weatherlink.com 1.10,2013-05-15 05:57:00,
2013-05-14 23:12:00,51.5,48.0,30.02,West,270,7.0,16.0,88,0.00,,,0.00,weatherlink.com 1.10,2013-05-15 06:12:00,
2013-05-14 23:27:00,51.2,48.0,30.02,WNW,285,5.0,11.0,89,0.00,,,0.00,weatherlink.com 1.10,2013-05-15 06:27:00,
2013-05-14 23:42:00,51.1,48.0,30.03,WNW,285,9.0,15.0,90,0.00,,,0.00,weatherlink.com 1.10,2013-05-15 06:42:00,
2013-05-14 23:57:00,51.0,48.0,30.03,WNW,286,7.0,13.0,90,0.00,,,0.00,weatherlink.com 1.10,2013-05-15 06:57:00,